地球静止运行环境卫星 12星 (GOES 12)

导读 | 豆包AI

GOES 12是美国于2001年7月23日发射的第三代静止轨道气象卫星,隶属于GOES系列,归美国国家海洋和大气管理局管理运行。该卫星采用三轴稳定姿态控制,搭载多通道成像仪与大气垂直探测器,可获取大气温湿廓线、云顶及地表温度等气象数据,是全球气象监测网络的重要组成部分,为北美及周边区域天气预报、气候研究提供关键观测支撑,后续被新一代GOES卫星逐步替代。

基本信息
目录编号:
26871
目录名称:
GOES 12
国际标识:
2001-031A
轨道中心:
EARTH
卫星名称:
地球静止运行环境卫星 12星
卫星全名:
地球静止运行环境卫星 12星 (GOES 12)
卫星状态:
在轨 (已飞行8999 天)
发射日期:
2001-07-23 UTC
国别 :
美国 (US)
星等 :
--
轨道信息
数据来源 国际轨道数据 AOE轨道数据
星历时间 2026-03-13T17:48:00+0800
12小时前
查看轨道信息
2026-03-11T17:00:00+0800
2天前
查看轨道信息
半长轴 42486.513km 42486.485km
偏心率 0.0008794 0.000873
轨道倾角 12.012° 12.008°
近地点辐角 297.980° 297.116°
升交点赤经 38.067° 38.084°
平近点角 245.400° 240.571°
近地点 36071.013km 36071.257km
远地点 36145.739km 36145.439km
周期 1452.568分钟 1452.566分钟
每日圈数 0.991348 0.991349
详细信息
卫星平台:
LS-1300
平衡模式:
三轴稳定
覆盖范围:
全球
制造商(研发单位):
劳拉空间系统公司
制造商所在国:
美国
使用方式:
暂无
卫星简介
地球静止环境业务卫星是美国国家海洋和大气管理局(NOAA)与美国国家航空航天局(NASA)共同发展的民用静止轨道气象系列卫星。[1]美国第一代地球静止轨道气象卫星系列。英文缩写为GOES。该卫星已退役。
2D轨道图
3D轨道图
轨道高度分析图
轨道倾角分析图
轨道综合分析图
查看轨道综合分析图